Location: Acheville
(50.3840°N, 2.8827°E)
Time: 01:20:55
(UTC+00:00)

FENGYUN 1C DEB - Pass Details

Date: 06 February 2023
Orbit: 634 x 940 km, 98.3° (Epoch: 28 March)

Event Time Altitude Azimuth Distance (km) Brightness Sun altitude
Rises 18:21:33 0° 197° (SSW) 3,219 ? -14.9°
Reaches altitude 10° 18:24:18 10° 211° (SSW) 2,244 ? -15.3°
Maximum altitude 18:28:18 25° 266° (W) 1,413 ? -16.0°
Drops below altitude 10° 18:32:07 10° 321° (NW) 2,123 ? -16.6°
Sets 18:34:39 0° 335° (NNW) 3,007 ? -17.0°
